Simultaneous Nadir Overpasses (SNOs) Predictions

Prediction of SNOs between AQUA and METOP-A Satellite Orbit:

Table of predicted SNOs for the next 14.0 days since TLE Epoch: 5/8/2015
Index Date (AQUA) Time (AQUA) Lat,Lon (AQUA) SZA (AQUA ) Date (METOP-A) Time (METOP-A) Lat,Lon (METOP-A) SZA (METOP-A ) Distance(km) Time Diff (sec)
1 05/08/2015 23:21:29 73.32,-174.85 56.06 05/08/2015 23:20:22 73.26,-177.27 56.08 77.65 67
2 05/09/2015 00:11:06 -73.91, -8.46 123.33 05/09/2015 00:10:51 -73.89, -8.48 123.35 1.95 15
3 05/09/2015 01:00:35 74.00, 158.97 56.76 05/09/2015 01:01:29 73.99, 159.08 56.73 3.88 54
4 05/11/2015 18:55:47 73.69,-109.18 55.71 05/11/2015 18:54:35 73.64,-109.99 55.69 25.97 72
5 05/11/2015 19:45:17 -73.91, 57.99 124.07 05/11/2015 19:45:11 -73.93, 58.01 124.05 2.13 6
6 05/11/2015 20:34:45 73.95,-134.48 55.97 05/11/2015 20:35:50 73.97,-134.56 55.98 2.98 65
7 05/14/2015 14:30:01 73.84, -43.06 55.17 05/14/2015 14:28:52 73.87, -43.06 55.21 3.04 69
8 05/14/2015 15:19:28 -73.90, 124.46 124.78 05/14/2015 15:19:33 -73.90, 124.36 124.77 3.41 5
9 05/14/2015 16:08:58 74.05, -68.24 55.37 05/14/2015 16:10:10 74.04, -67.97 55.35 8.37 72
10 05/17/2015 10:04:12 73.87, 23.33 54.54 05/17/2015 10:03:13 73.89, 23.39 54.57 2.45 59
11 05/17/2015 10:53:39 -73.92,-169.15 125.41 05/17/2015 10:53:54 -73.92,-169.19 125.41 1.44 15
12 05/17/2015 11:43:16 74.44, -2.71 55.14 05/17/2015 11:44:24 74.41, -0.65 55.04 61.51 68
13 05/20/2015 05:38:21 73.89, 89.74 53.95 05/20/2015 05:37:33 73.90, 89.82 53.96 2.45 48
14 05/20/2015 06:27:48 -73.94,-102.73 126.01 05/20/2015 06:28:14 -73.93,-102.76 126.01 1.23 26




NCC Satellite Simultaneous Nadir Overpasses (SNOs) Prediction Service
